Mildenhall RAF, United Kingdom

5:09 PM BST on August 19, 2017 (GMT +0100)
Mildenhall Air Base

Weather History for EGUN - August, 2013

Change the Weather History Date:

Thursday, August 29, 2013

  Actual Average Record
Temperature  
Mean Temperature 66 °F -  
Max Temperature 75 °F - - ()
Min Temperature 56 °F - - ()
Growing Degree Days 16 (Base 50)    
Moisture  
Dew Point 55 °F    
Average Humidity 75    
Maximum Humidity 100    
Minimum Humidity 47    
Precipitation  
Precipitation 0.00 in - - ()
Sea Level Pressure  
Sea Level Pressure 30.15 in    
Wind  
Wind Speed 4 mph ()    
Max Wind Speed 13 mph    
Max Gust Speed 17 mph    
Visibility 6.1 miles    
Events      
T = Trace of Precipitation, MM = Missing Value Source: Averaged Metar Reports

Daily Weather History Graph

Daily Weather History Graph

Search for Another Location

Airport or City:

Trip Planner

Search our weather history database for the weather conditions in past years. The results will help you decide how hot, cold, wet, or windy it might be!

Date:

Astronomy

Aug. 29, 2013 Rise Set
Actual Time 6:04 AM BST 7:52 PM BST
Civil Twilight 5:28 AM BST 8:28 PM BST
Nautical Twilight 4:43 AM BST 9:12 PM BST
Astronomical Twilight 3:52 AM BST 10:02 PM BST
Moon No Moon Rise 3:32 PM BST (8/29)
Length of Visible Light 15h 00m
Length of Day
13h 48m
Last Quarter, 40% of the Moon is Illuminated
Aug 29
Last Quarter
Sep 5
New
Sep 12
First Quarter
Sep 19
Full
Sep 27
Last Quarter

Hourly Weather History & Observations

Time (BST) Temp. Dew Point Humidity Pressure Visibility Wind Dir Wind Speed Gust Speed Precip Events Conditions
12:08 AM 60.8 °F 53.6 °F 77% 30.17 in 6.2 mi SSW 2.3 mph - N/A   Mostly Cloudy
12:58 AM 61.0 °F 54.3 °F 79% 30.18 in 6.2 mi SE 3.5 mph - N/A   Scattered Clouds
1:58 AM 59.0 °F 55.4 °F 88% 30.18 in 6.2 mi SSW 2.3 mph - N/A   Partly Cloudy
2:58 AM 57.7 °F 55.8 °F 93% 30.17 in 6.2 mi SW 2.3 mph - N/A   Clear
3:58 AM 56.3 °F 55.2 °F 96% 30.17 in 6.2 mi West 2.3 mph - N/A   Scattered Clouds
4:03 AM 57.2 °F 55.4 °F 94% 30.16 in 6.2 mi WSW 3.5 mph - N/A   Mostly Cloudy
4:05 AM 57.2 °F 55.4 °F 94% 30.16 in 6.2 mi WSW 3.5 mph - N/A   Scattered Clouds
4:13 AM 57.2 °F 55.4 °F 94% 30.16 in 6.2 mi West 3.5 mph - N/A   Mostly Cloudy
4:27 AM 57.2 °F 57.2 °F 100% 30.16 in 6.2 mi West 3.5 mph - N/A   Scattered Clouds
4:58 AM 57.4 °F 56.5 °F 97% 30.16 in 6.2 mi SW 2.3 mph - N/A   Clear
5:58 AM 57.2 °F 56.8 °F 99% 30.17 in 6.2 mi SW 2.3 mph - N/A   Partly Cloudy
6:22 AM 57.2 °F 57.2 °F 100% 30.16 in 6.2 mi SW 2.3 mph - N/A   Mostly Cloudy
6:39 AM 57.2 °F 57.2 °F 100% 30.16 in 6.2 mi SW 4.6 mph - N/A   Scattered Clouds
6:58 AM 57.2 °F 57.2 °F 100% 30.17 in 5.0 mi WSW 4.6 mph - N/A   Partly Cloudy
7:58 AM 56.7 °F 56.7 °F 100% 30.17 in 3.1 mi WSW 5.8 mph - N/A   Clear
8:31 AM 59.0 °F 59.0 °F 100% 30.17 in 5.0 mi WSW 5.8 mph - N/A   Mostly Cloudy
8:58 AM 60.4 °F 59.0 °F 95% 30.18 in 6.2 mi West 5.8 mph - N/A   Overcast
9:34 AM 62.6 °F 57.2 °F 82% 30.17 in 6.2 mi West 4.6 mph - N/A   Scattered Clouds
9:58 AM 64.4 °F 56.5 °F 75% 30.17 in 6.2 mi WSW 5.8 mph - N/A   Clear
10:58 AM 67.3 °F 54.3 °F 63% 30.17 in 6.2 mi SW 8.1 mph - N/A   Clear
11:58 AM 69.3 °F 54.0 °F 58% 30.16 in 6.2 mi SW 5.8 mph - N/A   Clear
12:58 PM 72.5 °F 53.1 °F 50% 30.15 in 6.2 mi West 9.2 mph 16.1 mph N/A   Scattered Clouds
1:19 PM 73.4 °F 53.6 °F 50% 30.14 in 6.2 mi SW 9.2 mph - N/A   Mostly Cloudy
1:33 PM 73.4 °F 53.6 °F 50% 30.14 in 6.2 mi WSW 9.2 mph - N/A   Scattered Clouds
1:58 PM 73.8 °F 53.1 °F 48% 30.14 in 6.2 mi WSW 9.2 mph - N/A   Partly Cloudy
2:41 PM 75.2 °F 53.6 °F 47% 30.13 in 6.2 mi WNW 10.4 mph - N/A   Mostly Cloudy
2:54 PM 75.2 °F 53.6 °F 47% 30.13 in 6.2 mi West 9.2 mph - N/A   Mostly Cloudy
2:58 PM 74.5 °F 53.6 °F 48% 30.14 in 6.2 mi WNW 8.1 mph - N/A   Mostly Cloudy
3:58 PM 73.9 °F 53.8 °F 49% 30.12 in 6.2 mi WNW 9.2 mph - N/A   Mostly Cloudy
4:58 PM 74.3 °F 53.4 °F 48% 30.12 in 6.2 mi WSW 10.4 mph - N/A   Scattered Clouds
5:58 PM 74.5 °F 54.0 °F 49% 30.11 in 6.2 mi West 12.7 mph 17.3 mph N/A   Scattered Clouds
6:58 PM 71.6 °F 53.8 °F 53% 30.11 in 6.2 mi WNW 8.1 mph - N/A   Clear
7:58 PM 69.4 °F 54.5 °F 59% 30.12 in 6.2 mi West 2.3 mph - N/A   Mostly Cloudy
8:58 PM 67.3 °F 55.9 °F 67% 30.12 in 6.2 mi SSW 3.5 mph - N/A   Overcast
9:58 PM 66.7 °F 57.2 °F 71% 30.13 in 6.2 mi SW 4.6 mph - N/A   Overcast
10:58 PM 65.8 °F 57.7 °F 75% 30.13 in 6.2 mi SW 4.6 mph - N/A   Overcast
11:58 PM 65.3 °F 57.7 °F 76% 30.13 in 6.2 mi SW 4.6 mph - N/A   Overcast